Location: Unspecified
(0.0000°N, 0.0000°E)
Time: 13:53:34
(UTC+02:00)

Iridium 39 - Visible Passes

Search period start: 23 May 2015 00:00
Search period end: 02 June 2015 00:00
Orbit: 776 x 779 km, 86.4° (Epoch: 22 May)

Date Brightness Start Highest point End Pass type
(mag) Time Alt. Az. Time Alt. Az. Time Alt. Az.
23 May 7.8 20:57:20 10° NNW 21:02:00 33° W 21:06:37 10° SSW visible
24 May 6.3 20:23:19 10° N 20:28:31 75° W 20:33:44 10° S visible
25 May 8.9 07:18:17 10° SE 07:21:30 17° E 07:24:59 10° NE visible
26 May 8.7 20:58:14 10° NW 21:02:08 21° W 21:05:52 10° SW visible
27 May 7.3 20:23:38 10° NNW 20:28:36 45° W 20:33:34 10° SSW visible
28 May 8.3 07:17:19 10° SSE 07:21:39 28° E 07:26:06 10° NNE visible
29 May 9.1 06:46:13 10° ESE 06:48:03 12° E 06:50:19 10° ENE visible
29 May 9.1 20:59:58 10° WNW 21:02:18 12° W 21:04:14 10° WSW visible
30 May 8.3 20:24:15 10° NNW 20:28:43 28° W 20:33:04 10° SSW visible
31 May 7.3 07:16:49 10° SSE 07:21:45 45° E 07:26:43 10° NNE visible
01 Jun 8.7 06:44:32 10° SE 06:48:13 20° E 06:52:06 10° NE visible
